Location: Fort Collins
(40.5850°N, 105.0840°W)
Time: 03:43:43
(UTC-06:00)

Daily predictions for brighter satellites

Satellite Brightness Start Highest point End
(mag) Time Altitude Azimuth Time Altitude Azimuth Time Altitude Azimuth
Cosmos 2237 Rocket 3.2 00:08:11 43° NNW 00:08:11 43° NNW 00:12:31 10° NNE
Cosmos 2278 Rocket 3.5 00:06:15 10° NW 00:09:39 33° WNW 00:09:39 33° WNW
NOSS 3-1 (A) 4.3 00:16:58 45° NW 00:17:00 45° NW 00:23:16 10° NNE
ATLAS 2AS CENTAUR R/B 3.7 00:20:13 43° ENE 00:20:13 43° ENE 00:25:53 10° NE
CZ-2C R/B 4.0 00:18:44 10° NNE 00:21:47 34° NNE 00:21:47 34° NNE
Cosmos 2219 Rocket 4.3 00:35:05 17° WNW 00:36:32 19° NW 00:40:24 10° N
ATLAS 3B R/B 3.2 00:47:19 10° NNW 00:53:18 51° NNE 00:53:18 51° NNE
Cosmos 2369 Rocket 3.6 01:04:04 10° N 01:08:01 33° NNE 01:08:01 33° NNE
USA 238 DEB 4.3 01:04:13 10° NNW 01:11:08 52° NE 01:11:15 52° NE
USA 238 4.3 01:04:20 10° NNW 01:11:14 52° NE 01:11:23 52° NE
Cosmos 1943 Rocket 3.8 01:23:06 10° N 01:27:54 29° NE 01:27:54 29° NE
SL-16 R/B 3.9 01:28:45 26° NW 01:28:45 26° NW 01:32:50 10° N
USA 215 3.9 01:22:31 10° NE 01:26:58 45° ENE 01:26:58 45° ENE
ATLAS CENTAUR R/B 4.3 01:44:21 13° NNW 01:44:21 13° NNW 01:45:13 10° N
Cosmos 2181 Rocket 4.4 01:53:37 62° NNE 01:53:37 62° NNE 01:58:54 10° N
USA 267 4.5 01:55:11 10° E 02:01:07 38° NNE 02:07:03 10° NW
NOSS 3-4 (A) 4.2 02:09:46 45° E 02:09:46 45° E 02:14:45 10° NE
NOSS 3-4 (C) 4.2 02:09:52 45° E 02:09:52 45° E 02:14:51 10° NE
ATLAS 2AS CENTAUR R/B 3.9 02:07:36 36° WNW 02:09:24 41° NW 02:16:59 10° NNE
SL-8 Rocket 4.3 02:06:00 10° N 02:10:58 60° N 02:10:58 60° N
Cosmos 1943 4.0 02:24:55 44° NNW 02:24:55 44° NNW 02:29:15 10° NNE
NOSS 3-2 (A) 4.0 02:16:13 10° NNW 02:23:46 76° NE 02:26:15 48° SE
Aureole 1 Rocket 4.4 02:34:08 41° ENE 02:34:08 41° ENE 02:37:12 10° NNE
Lacrosse 5 rocket 4.0 02:41:40 16° E 02:41:40 16° E 02:43:20 10° ENE
ATLAS 3B R/B 4.4 02:38:38 10° NW 02:40:31 18° WNW 02:40:31 18° WNW
NPP 3.9 02:39:57 10° NNE 02:44:40 65° NE 02:44:40 65° NE
Nadezhda 3 Rocket 4.2 02:46:00 58° ESE 02:46:33 60° E 02:52:46 10° NNE
BREEZE M DEB (TANK) 4.0 02:28:58 10° WNW 02:48:26 68° SW 02:48:56 66° SSW
Resurs 1-4 Rocket 3.3 02:44:27 10° NNE 02:49:11 33° E 02:49:36 32° ESE
SL-08 R/B 4.1 02:51:20 47° N 02:51:20 47° N 02:54:45 10° N
Cosmos 2369 Rocket 4.1 02:48:18 10° NW 02:49:47 17° NW 02:49:47 17° NW
CZ-2D R/B 3.0 02:54:45 10° NNE 02:59:44 40° E 03:00:16 39° ESE
RESURS DK-1 3.8 03:01:38 37° NE 03:01:38 37° NE 03:04:16 10° NNE
Cosmos 1680 Rocket 3.6 03:03:31 70° N 03:03:31 70° N 03:08:13 10° NNE
CBERS-1 4.1 03:00:00 10° N 03:04:30 68° N 03:04:30 68° N
COSMOS 2455 2.8 03:04:24 10° NNW 03:10:28 81° ENE 03:12:09 50° SE
ADEOS 4.0 03:06:20 10° NNE 03:11:26 52° E 03:12:00 49° ESE
USA 215 4.1 03:05:46 10° NE 03:11:48 41° NNW 03:14:19 30° WNW
Cosmos 1943 Rocket 3.5 03:06:34 10° NW 03:09:23 27° NW 03:09:23 27° NW
Cosmos 192 4.4 03:14:33 73° ENE 03:14:33 73° ENE 03:19:09 10° NNE
SL-27 R/B 4.3 03:17:17 31° NE 03:17:17 31° NE 03:19:27 10° NNE
COSMOS 2406 3.1 03:17:44 77° S 03:18:10 85° ESE 03:23:57 10° NNE
IRS-1D 3.7 03:13:06 10° NNE 03:18:17 63° ESE 03:18:54 59° SE
Meteor 1-22 Rocket 4.3 03:17:19 10° NNW 03:22:12 58° WNW 03:22:12 58° WNW
NOSS 2-2 (E) 4.3 03:24:14 44° E 03:24:14 44° E 03:28:10 10° NE
Meteor 2-8 Rocket 4.3 03:25:12 63° SSW 03:26:17 86° W 03:32:28 10° N
ARIANE 5 R/B 2.6 03:24:06 10° NNE 03:29:22 75° ESE 03:30:09 62° SSE
COBE Rocket 4.2 03:26:36 10° NNE 03:31:37 62° E 03:32:34 51° SSE
NOSS 3-2 (C) 4.0 03:26:21 10° NW 03:33:46 56° WSW 03:37:19 33° S
Cosmos 1821 Rocket 3.8 03:27:40 10° N 03:33:48 89° W 03:35:56 44° S
IRS-1C 4.2 03:28:43 10° N 03:33:57 57° WNW 03:34:13 56° W
Cosmos 1371 Rocket 4.0 03:29:41 10° NNW 03:35:05 87° ENE 03:36:48 45° SSE
Cosmos 1825 Rocket 3.5 03:35:15 84° ENE 03:35:15 84° ENE 03:39:35 10° N
Cosmos 1953 2.6 03:34:34 10° N 03:38:32 63° E 03:38:39 63° E
SL-16 R/B 2.4 03:36:45 47° S 03:38:37 74° WSW 03:44:48 10° NNW
USA 267 3.1 03:37:16 10° SE 03:43:48 74° SW 03:50:22 10° NW
Cosmos 2239 Rocket 4.3 03:38:01 10° N 03:44:10 73° W 03:46:09 44° SSW
CENTAUR R/B 3.3 03:36:37 10° NNW 03:44:31 72° NE 03:52:55 10° SE
ADEOS Rocket 3.0 03:38:31 10° NNE 03:44:35 83° WNW 03:47:00 42° SSW
GEOS 3 Rocket 3.7 03:40:36 10° NNE 03:45:52 71° NW 03:47:02 53° WSW
Cosmos 1818 3.8 03:47:39 45° S 03:49:10 64° ESE 03:54:34 10° NE
Okean O Rocket 4.2 03:48:01 10° NE 03:50:49 16° E 03:53:35 10° SE
UNKNOWN OBJECT B 3.1 03:46:58 10° NNE 03:50:56 63° ESE 03:51:34 54° SSE
Cosmos 1535 Rocket 4.4 03:45:27 10° NNW 03:51:37 68° W 03:53:55 39° SSW
Cosmos 1656 Rocket 4.2 03:48:57 10° NW 03:53:09 38° W 03:53:09 38° W
Cosmos 1605 Rocket 4.1 03:48:11 10° N 03:54:25 72° E 04:00:20 11° SSE
ADEOS II 4.3 03:51:08 10° NE 03:55:03 21° E 03:58:59 10° SE
Cosmos 1758 3.3 03:51:02 10° NNW 03:54:56 69° WNW 03:54:56 69° WNW
Cosmos 1934 Rocket 3.9 03:49:28 10° N 03:55:45 78° W 03:59:23 27° S
NOSS 2-2 (D) 3.3 03:59:14 68° SW 03:59:46 89° NW 04:04:20 10° NE
Tiangong 1 2.0 04:04:20 40° ENE 04:04:20 40° ENE 04:06:23 10° E
UNK 4.4 04:05:30 36° W 04:05:30 36° W 04:09:15 10° NNW
Cosmos 839 Rocket 4.3 04:05:37 10° NNW 04:11:58 82° ENE 04:19:30 10° SSE
Cosmos 1733 3.1 04:10:52 10° N 04:14:41 86° E 04:16:22 31° S
NOSS 2-2 (C) 3.7 04:17:06 43° WSW 04:18:11 58° NW 04:22:46 10° NNE
USA 161 1.3 04:18:52 81° WNW 04:18:52 81° WNW 04:21:43 10° NNW
Lacrosse 5 rocket 1.8 04:17:23 39° WSW 04:18:56 64° NW 04:23:34 10° NE
Cosmos 389 Rocket 2.4 04:17:31 10° N 04:21:09 89° W 04:23:01 27° S
Cosmos 2098 Rocket 1.8 04:19:18 10° N 04:22:14 82° W 04:22:26 75° SSW
Delta 2 Rocket 3.6 04:22:47 34° SSE 04:22:47 34° SSE 04:25:32 10° ESE
Cosmos 1271 Rocket 3.9 04:22:06 10° NNW 04:24:31 25° WNW 04:24:31 25° WNW
MOS 1 Rocket 3.0 04:21:52 10° NNE 04:26:13 87° WNW 04:28:54 24° SSW
Cosmos 1624 Rocket 4.5 04:23:04 10° NW 04:27:50 37° WSW 04:29:49 27° SW
Cosmos-2242 2.9 04:24:29 10° NNW 04:28:52 69° W 04:32:08 17° S
Cosmos 2278 4.0 04:23:11 10° NNW 04:28:54 71° ENE 04:34:35 10° SSE
Resurs 1-4 Rocket 3.1 04:24:23 10° N 04:28:55 30° WNW 04:30:41 25° W
Cosmos 1758 Rocket 4.3 04:28:15 31° WSW 04:29:05 34° WNW 04:33:04 10° N
CZ-4B R/B 4.2 04:25:35 10° NNE 04:29:41 42° E 04:33:56 10° S
Cosmos 2369 3.8 04:30:41 10° NNW 04:36:26 80° ENE 04:42:10 10° SSE
Cosmos 921 Rocket 3.7 04:33:27 10° NW 04:37:29 33° W 04:39:02 26° SW
CZ-2D R/B 3.3 04:35:17 10° NNW 04:39:34 25° WNW 04:41:35 20° W
Meteor 2-5 Rocket 3.7 04:35:16 13° S 04:40:22 85° W 04:46:13 10° N
Cosmos 2056 Rocket 4.3 04:36:36 10° NW 04:41:12 31° W 04:43:40 21° SW
MOS 1-B 4.3 04:37:44 10° N 04:43:32 75° WNW 04:48:43 13° SSW
Cosmos 2221 4.5 04:44:25 10° NNE 04:48:15 31° ENE 04:52:02 10° SE
Cosmos 2061 Rocket 4.3 04:44:13 10° N 04:50:27 71° E 04:56:36 10° SSE
COSMOS 2455 4.4 04:52:25 10° WNW 04:55:09 15° W 04:55:09 15° W
Cosmos 2082 Rocket 2.3 04:50:20 11° SSW 04:55:54 83° ESE 05:01:37 10° NNE
Cosmos 1833 Rocket 2.8 04:51:24 10° SSW 04:56:58 77° ESE 05:02:36 10° NNE
Cosmos 1980 Rocket 4.0 04:52:45 10° N 04:58:00 36° ENE 05:03:11 10° SE
Cosmos 1727 Rocket 4.4 04:54:52 15° SW 04:59:45 43° WNW 05:05:37 10° N
Cosmos 158 Rocket 4.1 04:55:49 10° S 05:00:45 74° ESE 05:05:53 10° NNE
DNEPR-1 R/B 3.6 04:56:57 10° NW 05:01:03 52° WSW 05:05:27 10° SSE
Cosmos 1656 3.6 04:55:57 10° NNW 05:01:25 88° ENE 05:06:50 10° SSE
CZ-2C R/B 4.2 04:58:53 10° SSE 05:03:14 63° ENE 05:07:39 10° N
Landsat 4 4.3 05:00:09 10° SSW 05:03:34 34° W 05:07:00 10° NNW
CZ-4B R/B 3.3 04:59:18 10° NNE 05:04:41 79° ESE 05:09:58 10° S
Cosmos 1707 3.8 05:03:03 18° WSW 05:05:06 27° WNW 05:08:27 10° NNW
PAYLOAD B 4.3 04:59:32 10° NNE 05:05:08 88° ESE 05:10:41 10° SSW
ARIANE 5 R/B 4.4 05:05:02 10° NNW 05:07:48 15° WNW 05:10:30 10° W
Cosmos 2016 Rocket 4.2 05:04:18 10° N 05:10:34 79° E 05:16:53 10° S
Cosmos 1470 4.3 05:10:06 10° NW 05:12:42 17° W 05:14:26 13° WSW
Okean 3 Rocket 3.9 05:10:25 10° S 05:14:45 70° E 05:19:10 10° NNE
Cosmos 1452 Rocket 4.0 05:11:31 10° NW 05:16:17 36° W 05:21:03 10° SSW
Meteor 1-16 Rocket 4.4 05:12:11 10° NNW 05:17:17 44° W 05:22:16 10° SSW
COSMOS 2487 3.9 05:17:47 13° WSW 05:20:09 23° WNW 05:23:04 10° N
GPS 2-05 Rocket1 4.2 05:20:09 11° SW 05:22:59 27° SSE 05:25:56 10° ESE
Cosmos 1378 4.4 05:20:56 11° SW 05:23:49 24° WNW 05:26:54 10° NNW
IRS-1C Rocket 4.2 05:20:31 10° N 05:25:44 64° WNW 05:30:55 10° SSW
Cosmos 1802 Rocket 4.1 05:19:38 10° NNW 05:26:00 66° W 05:32:19 10° S
Okean O Rocket 2.1 05:23:10 10° N 05:27:24 44° WNW 05:31:34 10° SW
USA 267 4.5 05:23:26 10° SSW 05:27:28 17° WSW 05:31:31 10° W
CZ-3 R/B 4.0 05:19:07 10° SW 05:30:37 21° S 05:35:45 10° SE
Cosmos 1420 Rocket 4.5 05:28:02 10° NW 05:32:59 40° WSW 05:37:52 10° S
Cosmos 1459 Rocket 4.3 05:27:50 10° NNW 05:33:41 48° W 05:39:36 10° SSW
CENTAUR R/B 3.9 05:28:13 10° NW 05:34:49 28° WSW 05:41:38 10° SSW
ADEOS II 2.5 05:29:58 10° N 05:34:59 46° WNW 05:39:59 10° SW
Cosmos 1048 Rocket 4.4 05:33:37 10° SW 05:38:30 44° WNW 05:43:23 10° N
Cosmos 1766 Rocket 4.3 05:34:44 10° S 05:39:08 60° E 05:43:32 10° NNE
Tiangong 1 1.6 05:36:39 10° W 05:39:15 34° SSW 05:41:51 10° SE
Cosmos 1725 Rocket 4.1 05:35:32 10° N 05:41:49 85° W 05:48:07 10° S
SL-24 R/B 4.4 05:37:04 10° N 05:41:57 90° SE 05:46:46 10° S
